Bigfork, MN

3:31 AM CDT on March 29, 2017 (GMT -0500)
Bigfork Municipal

Weather History for KFOZ - February, 2012

Change the Weather History Date:

Thursday, February 9, 2012

  Actual Average (KGPZ) Record (KGPZ)
Temperature  
Mean Temperature 21 °F -  
Max Temperature 30 °F 23 °F 54 °F (1921)
Min Temperature 10 °F -2 °F -34 °F (1951)
Degree Days  
Heating Degree Days 44    
Moisture  
Dew Point 10 °F    
Average Humidity 63    
Maximum Humidity 80    
Minimum Humidity 53    
Precipitation  
Precipitation 0.00 in - - ()
Sea Level Pressure  
Sea Level Pressure 29.90 in    
Wind  
Wind Speed 9 mph (West)    
Max Wind Speed 13 mph    
Max Gust Speed 22 mph    
Visibility 9 miles    
Events Snow    
Averages and records for this station are not official NWS values.
T = Trace of Precipitation, MM = Missing Value Source: NWS Daily Summary

Daily Weather History Graph

Daily Weather History Graph

Search for Another Location

Airport or City:

Trip Planner

Search our weather history database for the weather conditions in past years. The results will help you decide how hot, cold, wet, or windy it might be!

Date:

Astronomy

Feb. 09, 2012 Rise Set
Actual Time 7:30 AM CST 5:27 PM CST
Civil Twilight 6:58 AM CST 5:59 PM CST
Nautical Twilight 6:22 AM CST 6:36 PM CST
Astronomical Twilight 5:46 AM CST 7:12 PM CST
Moon 8:12 PM CST (2/9) 7:54 AM CST (2/9)
Length of Visible Light 11h 01m
Length of Day
9h 56m
Waning Gibbous, 96% of the Moon is Illuminated
Feb 9
Waning Gibbous
Feb 14
Last Quarter
Feb 21
New
Feb 29
First Quarter
Mar 8
Full

Hourly Weather History & Observations

Time (CST) Temp. Windchill Dew Point Humidity Pressure Visibility Wind Dir Wind Speed Gust Speed Precip Events Conditions
12:14 AM 19.4 °F 7.2 °F 10.4 °F 68% 30.04 in 10.0 mi SW 11.5 mph - N/A   Clear
12:34 AM 19.4 °F 7.9 °F 8.6 °F 63% 30.03 in 10.0 mi WSW 10.4 mph - N/A   Clear
12:54 AM 19.4 °F 7.9 °F 8.6 °F 63% 30.03 in 10.0 mi WSW 10.4 mph - N/A   Clear
1:14 AM 19.4 °F 8.6 °F 8.6 °F 63% 30.02 in 10.0 mi WSW 9.2 mph - N/A   Clear
1:34 AM 19.4 °F 7.2 °F 8.6 °F 63% 30.02 in 10.0 mi WSW 11.5 mph - N/A   Clear
1:54 AM 19.4 °F 6.6 °F 8.6 °F 63% 30.01 in 10.0 mi WSW 12.7 mph 17.3 mph N/A   Clear
2:14 AM 21.2 °F 9.5 °F 8.6 °F 58% 30.00 in 10.0 mi WSW 11.5 mph 21.9 mph N/A   Clear
2:34 AM 21.2 °F 9.5 °F 8.6 °F 58% 29.99 in 10.0 mi WSW 11.5 mph - N/A   Clear
2:54 AM 19.4 °F 7.2 °F 8.6 °F 63% 29.98 in 10.0 mi WSW 11.5 mph - N/A   Clear
3:14 AM 19.4 °F 7.9 °F 6.8 °F 58% 29.97 in 10.0 mi WSW 10.4 mph - N/A   Clear
3:34 AM 19.4 °F 8.6 °F 6.8 °F 58% 29.96 in 10.0 mi SW 9.2 mph - N/A   Clear
3:54 AM 17.6 °F 6.4 °F 6.8 °F 63% 29.95 in 10.0 mi SW 9.2 mph - N/A   Clear
4:14 AM 19.4 °F 6.6 °F 6.8 °F 58% 29.94 in 10.0 mi SW 12.7 mph 16.1 mph N/A   Clear
4:34 AM 19.4 °F 7.9 °F 6.8 °F 58% 29.94 in 10.0 mi SW 10.4 mph - N/A   Clear
4:54 AM 17.6 °F 5.0 °F 6.8 °F 63% 29.93 in 10.0 mi SW 11.5 mph 17.3 mph N/A   Clear
5:14 AM 17.6 °F 5.7 °F 6.8 °F 63% 29.92 in 10.0 mi SW 10.4 mph - N/A   Clear
5:34 AM 15.8 °F 3.4 °F 6.8 °F 68% 29.91 in 10.0 mi SW 10.4 mph - N/A   Clear
5:54 AM 15.8 °F 4.2 °F 6.8 °F 68% 29.90 in 10.0 mi SSW 9.2 mph - N/A   Clear
6:14 AM 15.8 °F 4.2 °F 6.8 °F 68% 29.90 in 10.0 mi SW 9.2 mph - N/A   Clear
6:34 AM 15.8 °F 3.4 °F 6.8 °F 68% 29.89 in 10.0 mi SW 10.4 mph - N/A   Clear
6:54 AM 15.8 °F 4.2 °F 6.8 °F 68% 29.89 in 10.0 mi SW 9.2 mph - N/A   Clear
7:17 AM 15.8 °F 4.2 °F 6.8 °F 68% 29.89 in 10.0 mi SW 9.2 mph - N/A   Clear
7:34 AM 15.8 °F 6.1 °F 6.8 °F 68% 29.88 in 10.0 mi SW 6.9 mph - N/A   Clear
7:55 AM 17.6 °F 7.3 °F 8.6 °F 68% 29.88 in 10.0 mi SW 8.1 mph - N/A   Clear
8:14 AM 17.6 °F 8.2 °F 8.6 °F 68% 29.88 in 10.0 mi WSW 6.9 mph - N/A   Clear
8:34 AM 19.4 °F 8.6 °F 8.6 °F 63% 29.88 in 10.0 mi SW 9.2 mph - N/A   Clear
8:58 AM 19.4 °F 7.9 °F 10.4 °F 68% 29.87 in 10.0 mi SW 10.4 mph - N/A   Clear
9:14 AM 21.2 °F 10.9 °F 10.4 °F 63% 29.87 in 10.0 mi SW 9.2 mph - N/A   Clear
9:35 AM 21.2 °F 9.5 °F 10.4 °F 63% 29.87 in 10.0 mi WSW 11.5 mph - N/A   Clear
9:54 AM 23.0 °F 12.4 °F 12.2 °F 63% 29.86 in 10.0 mi SW 10.4 mph - N/A   Unknown
10:14 AM 24.8 °F 14.6 °F 12.2 °F 59% 29.86 in 10.0 mi WSW 10.4 mph - N/A   Clear
10:35 AM 24.8 °F 13.4 °F 12.2 °F 59% 29.84 in 10.0 mi SW 12.7 mph 18.4 mph N/A   Clear
10:54 AM 26.6 °F 19.1 °F 14.0 °F 59% 29.84 in 10.0 mi WSW 6.9 mph - N/A   Clear
11:14 AM 26.6 °F 16.8 °F 15.8 °F 64% 29.84 in 10.0 mi SW 10.4 mph - N/A   Clear
11:34 AM 28.4 °F 20.4 °F 15.8 °F 59% 29.83 in 10.0 mi SW 8.1 mph - N/A   Clear
11:54 AM 28.4 °F 21.2 °F 15.8 °F 59% 29.82 in 10.0 mi SW 6.9 mph - N/A   Clear
12:14 PM 28.4 °F 19.7 °F 15.8 °F 59% 29.81 in 10.0 mi SW 9.2 mph - N/A   Clear
12:34 PM 28.4 °F 21.2 °F 15.8 °F 59% 29.80 in 10.0 mi WSW 6.9 mph - N/A   Clear
12:55 PM 30.2 °F 23.4 °F 15.8 °F 55% 29.80 in 10.0 mi West 6.9 mph - N/A   Clear
1:15 PM 30.2 °F 24.3 °F 15.8 °F 55% 29.80 in 10.0 mi West 5.8 mph - N/A   Clear
1:34 PM 30.2 °F - 15.8 °F 55% 29.80 in 10.0 mi Calm Calm - N/A   Clear
1:54 PM 30.2 °F 24.3 °F 15.8 °F 55% 29.80 in 10.0 mi NNW 5.8 mph - N/A   Clear
2:14 PM 28.4 °F 23.3 °F 15.8 °F 59% 29.82 in 10.0 mi NW 4.6 mph - N/A   Mostly Cloudy
2:34 PM 28.4 °F 23.3 °F 15.8 °F 59% 29.82 in 10.0 mi WNW 4.6 mph - N/A   Overcast
2:54 PM 26.6 °F 21.2 °F 15.8 °F 64% 29.83 in 10.0 mi NNW 4.6 mph - N/A   Overcast
3:15 PM 24.8 °F 16.1 °F 15.8 °F 69% 29.85 in 10.0 mi NW 8.1 mph - N/A Snow Light Snow
3:34 PM 24.8 °F 19.1 °F 15.8 °F 69% 29.85 in 7.0 mi NNW 4.6 mph - N/A Snow Light Snow
3:54 PM 24.8 °F 16.9 °F 15.8 °F 69% 29.86 in 4.0 mi NNW 6.9 mph - N/A Snow Light Snow
4:19 PM 24.8 °F 17.9 °F 17.6 °F 74% 29.87 in 5.0 mi NNW 5.8 mph - N/A Snow Light Snow
4:35 PM 23.0 °F 13.9 °F 15.8 °F 74% 29.88 in 7.0 mi NNW 8.1 mph - N/A Snow Light Snow
4:54 PM 21.2 °F 11.7 °F 15.8 °F 80% 29.89 in 2.5 mi NW 8.1 mph - N/A Snow Light Snow
5:14 PM 21.2 °F 12.6 °F 14.0 °F 74% 29.90 in 5.0 mi NW 6.9 mph - N/A Snow Light Snow
5:34 PM 19.4 °F 8.6 °F 14.0 °F 80% 29.92 in 7.0 mi NW 9.2 mph - N/A Snow Light Snow
5:56 PM 19.4 °F 10.4 °F 12.2 °F 74% 29.93 in 10.0 mi NNW 6.9 mph - N/A Snow Light Snow
6:14 PM 19.4 °F 12.8 °F 10.4 °F 68% 29.94 in 10.0 mi NW 4.6 mph - N/A   Scattered Clouds
6:34 PM 17.6 °F 12.3 °F 10.4 °F 73% 29.94 in 10.0 mi NW 3.5 mph - N/A   Clear
6:54 PM 17.6 °F 7.3 °F 6.8 °F 63% 29.95 in 10.0 mi NW 8.1 mph - N/A   Clear
7:14 PM 15.8 °F 5.1 °F 3.2 °F 58% 29.97 in 10.0 mi NNW 8.1 mph - N/A   Clear
7:34 PM 15.8 °F 4.2 °F 1.4 °F 53% 29.98 in 10.0 mi NNW 9.2 mph 16.1 mph N/A   Clear
7:54 PM 14.0 °F 2.9 °F 1.4 °F 57% 29.98 in 10.0 mi NNW 8.1 mph - N/A   Clear
8:14 PM 12.2 °F -1.0 °F -0.4 °F 57% 30.00 in 10.0 mi NNW 10.4 mph 16.1 mph N/A   Clear
8:34 PM 12.2 °F -1.0 °F -2.2 °F 53% 30.01 in 10.0 mi NNW 10.4 mph 16.1 mph N/A   Clear
8:54 PM 10.4 °F -1.5 °F -2.2 °F 57% 30.02 in 10.0 mi NNW 8.1 mph - N/A   Clear
9:14 PM 10.4 °F -1.5 °F -2.2 °F 57% 30.04 in 10.0 mi NNW 8.1 mph 18.4 mph N/A   Clear
9:34 PM 10.4 °F -2.4 °F -2.2 °F 57% 30.05 in 10.0 mi North 9.2 mph 21.9 mph N/A   Clear
9:54 PM 8.6 °F -5.5 °F -4.0 °F 57% 30.07 in 10.0 mi NNW 10.4 mph 20.7 mph N/A   Clear
10:14 PM 6.8 °F -3.5 °F -4.0 °F 61% 30.08 in 10.0 mi NNW 5.8 mph - N/A   Clear
10:34 PM 6.8 °F -8.6 °F -5.8 °F 56% 30.08 in 10.0 mi NNW 11.5 mph 18.4 mph N/A   Clear
10:54 PM 6.8 °F -7.8 °F -5.8 °F 56% 30.09 in 10.0 mi North 10.4 mph 17.3 mph N/A   Clear
11:15 PM 5.0 °F -6.9 °F -7.6 °F 56% 30.10 in 10.0 mi NNW 6.9 mph 16.1 mph N/A   Clear
11:34 PM 3.2 °F -10.3 °F -7.6 °F 61% 30.11 in 10.0 mi NNW 8.1 mph - N/A   Clear
11:54 PM 1.4 °F -12.5 °F -7.6 °F 66% 30.13 in 10.0 mi NNW 8.1 mph - N/A   Clear